BEARDSLEY LAKE (BRD)

Elevation: 3398' · STANISLAUS R basin · Operator: US Bureau of Reclamation

Provisional data, subject to change.
Query executed Tuesday at 23:59:46   clock

Select a sensor type for a plot of data.
Note: Reservoir Flows are daily averages.

Earlier

Date STORAGE    RES CHG    OUTFLOW    PPT INC   
 AF   AF   CFS   INCHES  
03/16/2014 24224 27 137 0.00
03/17/2014 24283 59 138 0.00
03/18/2014 24301 18 138 0.00
03/19/2014 24287 -14 138 0.00
03/20/2014 24359 72 138 0.00
03/21/2014 24350 -9 137 0.00
03/22/2014 24332 -18 138 0.00
03/23/2014 24319 -13 138 0.00
03/24/2014 23472 -- 295 0.00
03/25/2014 24314 842 138 0.00
03/26/2014 24381 67 138 1.10
03/27/2014 24430 49 139 0.86
03/28/2014 24444 14 138 0.07
03/29/2014 24529 85 137 0.00
03/30/2014 24574 45 137 1.12
03/31/2014 24771 197 -- --
04/01/2014 24857 86 136 1.01
04/02/2014 24974 117 136 0.33
04/03/2014 25019 45 136 0.02
04/04/2014 25077 58 136 0.00
04/05/2014 25113 36 135 0.00
04/06/2014 25179 66 137 0.00
04/07/2014 25312 133 137 0.00
04/08/2014 25447 135 137 0.00
04/09/2014 25651 204 139 0.00
04/10/2014 25810 159 139 0.00
04/11/2014 25964 154 140 0.00
04/12/2014 26146 182 140 0.00
04/13/2014 26279 133 138 0.00
04/14/2014 26393 114 137 0.00
04/15/2014 -- -- -- --

Later | Latest

Warning! This data is preliminary and subject to revision.

Download Data Now Download Data Now | Show BRD Map | Plot BRD Data | 1 Month BRD Data | Real-Time BRD Data | BRD Info